Lid_Strength_Index
2 0 -1 -1 -1 -1 -2 -2 -1 -2 -1 -2 -1 -1 -1 -1 -2 -2 -2 -2 -2 -2 -2 -2 -2 -2 -2 -2 -2 -2 -2 -2 -2 -2 -2 -2 -2 -2 -2 -2 -2 -1 -2
1 -0 -1 -1 -2 -2 -2 -2 -2 -2 -2 -2 -2 -2 -1 -1 -1 -2 -2 -2 -2 -2 -2 -2 -2 -2 -2 -2 -2 -2 -2 -2 -2 -2 -2 -2 -2 -2 -2 -2 -2 -1 -2
0 -0 -0 -1 -1 -2 -2 -2 -2 -2 -2 -2 -2 -2 -2 -2 -2 -2 -2 -2 -2 -2 -2 -2 -2 -2 -2 -2 -2 -2 -2 -2 -2 -2 -1 -0 -0 -2 -2 -2 -2 -2 -2
0 -0 -0 -1 -1 -1 -1 -1 -2 -2 -2 -1 -1 -1 -1 -2 -2 -2 -2 -2 -2 -2 -2 -2 -2 -2 -2 -2 -2 -2 -2 -2 -2 -1 1 0 -1 -2 -2 -2 -2 -2 -2
1 0 -0 -1 -1 -1 -1 -1 -2 -2 -2 -1 -1 -1 -1 -1 -1 -2 -2 -2 -2 -2 -2 -2 -2 -2 -2 -2 -2 -2 -2 -2 -1 1 2 1 -0 -2 -2 -2 -2 -1 -1
0 0 0 -1 -1 -1 -1 -1 -2 -2 -2 -2 -1 -1 -1 -1 -1 -2 -1 -2 -2 -2 -2 -2 -1 -1 -2 -2 -2 -2 -2 -2 0 3 2 0 1 -2 -2 -2 -1 -0 -0
1 0 0 -0 -1 -1 -1 -2 -1 -2 -2 -2 -1 -1 -1 -1 -1 -2 -2 -2 -2 -2 -2 -2 -2 -1 -2 -2 -2 -2 -2 -1 3 3 2 1 1 -1 -2 -2 -2 -2 -1
0 -0 0 1 0 -1 -1 -1 -1 -1 -2 -2 -2 -1 -1 -1 -2 -2 -1 -2 -2 -2 -2 -1 -1 -1 -2 -2 -2 -2 -1 -0 2 2 2 2 -1 -1 -1 -1 -1 -2 -2
3 3 -0 0 1 1 0 -0 -1 -1 -1 -2 -2 -2 -1 -1 -1 -1 -1 -2 -2 -1 -1 -1 -1 -1 -2 -2 -2 -1 -1 0 3 2 2 2 -2 -2 -2 -1 -1 -1 -0
2 2 3 2 2 0 1 1 0 -0 -1 -1 -1 -1 0 0 -0 -0 -0 -1 -2 -2 -2 -1 -1 -1 -2 -2 -2 -1 -0 1 3 3 3 2 -1 -1 -1 -1 -1 -0 0
3 2 2 2 3 3 -0 1 2 1 0 0 0 1 1 1 0 0 1 -0 -1 -1 -2 -2 -1 -1 -2 -2 -2 -1 1 3 3 3 3 -1 -1 -1 -0 -0 0 0 0
4 2 2 3 2 2 -0 0 0 -0 -0 -0 0 0 0 1 1 0 1 1 -0 -0 -1 -2 -1 0 1 1 1 0 3 3 3 3 3 -1 -1 -1 -0 0 1 1 1
4 3 3 3 2 3 1 1 0 -0 1 0 0 0 0 1 2 1 0 0 -0 1 -0 -0 1 2 3 2 2 3 3 3 3 3 2 -1 -1 -1 -0 -0 0 1 1
6 5 5 3 2 3 2 1 1 1 0 1 1 0 1 1 2 1 0 0 0 0 1 1 2 2 3 3 2 3 3 4 4 3 2 0 -2 -1 -1 -1 -0 0 0
7 6 5 5 3 2 2 1 0 1 1 0 1 0 1 1 2 1 1 0 0 -0 1 2 2 2 3 3 3 2 3 3 3 3 3 2 -1 -2 -2 -2 -2 -1 -1
7 6 5 6 6 3 2 2 1 1 1 1 1 1 0 1 1 2 1 1 1 1 1 2 2 2 3 2 2 2 2 3 3 3 3 3 1 -1 -2 -2 -2 -2 -2
8 7 6 5 6 6 3 2 1 1 0 1 1 1 1 1 1 1 1 0 1 1 1 1 2 2 2 1 1 1 2 2 3 3 3 3 3 1 -1 -2 -2 -2 -2
8 8 7 6 7 7 6 3 2 2 0 1 1 1 0 0 1 1 1 1 0 1 1 1 2 2 2 2 2 2 2 2 2 2 2 3 3 2 1 -1 -1 -1 -1
9 8 8 7 9 8 7 5 2 2 1 0 1 1 1 1 1 1 1 1 1 1 2 2 2 2 2 3 3 3 3 2 2 2 2 2 2 2 2 2 1 1 -0
10 9 9 8 8 9 8 7 4 3 2 1 0 1 1 1 1 1 1 1 1 2 2 2 3 3 3 3 3 4 4 3 3 3 3 2 3 3 4 4 4 4 2
9 10 10 9 10 10 10 9 7 6 6 3 3 2 1 1 1 2 2 2 2 2 2 3 4 4 4 4 4 5 4 4 4 4 4 4 4 4 4 5 5 5 5
11 10 11 10 11 11 10 9 8 8 7 5 4 4 4 1 2 2 2 3 3 2 2 3 3 5 4 4 5 6 6 6 7 6 6 6 6 6 5 5 5 5 6
12 12 11 11 11 11 11 10 9 7 6 6 7 6 5 3 2 2 2 3 3 2 3 3 3 4 4 5 5 5 9 9 8 6 7 6 6 6 6 6 6 6 6
12 12 11 11 11 11 11 11 11 10 10 9 8 7 6 4 3 1 2 2 2 2 3 3 3 4 4 5 5 5 7 7 8 8 7 7 7 7 6 6 6 5 5
12 12 12 12 12 12 12 11 11 12 10 9 8 8 7 6 4 4 1 2 2 2 2 3 3 3 3 4 5 5 6 6 6 7 7 6 5 4 4 4 5 5 7
13 13 12 12 12 12 12 12 13 12 12 11 10 9 9 7 6 5 4 1 1 2 2 2 2 3 3 3 4 5 5 6 6 6 7 6 6 5 4 4 6 8 9